ONEWEB-0180, 48213

Orbit data source: Space-Track

ONEWEB-0180, 48213 is a payload satellite owned by One Web (NAA) (UK) in LEO that was launched on Sun, 25 Apr 2021 UTC via a SOYUZ-2-1B launch vehicle from the Vostochny Cosmodrome (VOSTO). Payload-class satellites include a variety of spacecraft equipped with specific instruments for various scientific and technological missions. These include communications satellites like Starlink; space stations such as the ISS; scientific satellites like the Hubble; Earth observation satellites from companies like Planet Labs, Umbra, and HawkEye 360; GPS; miniature CubeSats for education and research; and military/defense satellites.

Loading next visibility...
Identifier
48213, 2021-031D
Orbit
LEO
Country
Flag of UKUK
Related business
Manufacturer
One Web
Mission
Operational Commercial Communications
Bus & Motor
ARROW, Unknown motor
Mass
148 kg wet, ~140 kg dry
Launch date (UTC)
2021-04-25 (5 years ago)
Launch vehicle
SOYUZ-2-1B
Launch site
Vostochny Cosmodrome (VOSTO)
Object type
Payload
Rocket body
Debris
Shape & HBR
Trap Box + 2 Pan, 6.7 m
Radar Cross Section
3.464 m², Large (>1 m²)

Expand to show TLE details & history
Last TLE update: 2 days ago

TLE from 2 days ago
0 ONEWEB-0180
1 48213U 21031D   26171.35216164 -.00000463  00000-0 -12835-2 0  9996
2 48213  87.8976 289.0659 0002297 109.9386 250.1992 13.14498675248639
Epoch: 2026-06-20T08:27Z
TLE epoch observation values (Epoch: 2026-06-20T08:27:06.765Z)
Latitude
0.00004°
Longitude
-106.28031°
Altitude
1,209.291 km
Speed
7.249 km/s
True Right ascension
19h 16m 15s
True Declination
0° 00' 00"
Sunlit
Object was in full shadow at epoch
Visualization orbit readout
Latitude
Unknown
Longitude
Unknown
Altitude
Unknown
Speed
Unknown
Apparent Right ascension
Unknown
Apparent Declination
Unknown
Sunlit
N/A
Visualization observer readout
Local Sidereal Time
00:51:25
Azimuth
Unknown
Elevation
Unknown
Doppler factor
Unknown
Orbital elements
Apogee altitude
1,204.661 km
Perigee altitude
1,201.178 km
Semi-major axis
7,581.057 km
Eccentricity
0.00023
Inclination
87.8976°
RAAN
289.0659°
Arg. of periapsis
109.9386°
True anomaly
250.17444°
Mean anomaly
250.1992°
Eccentric anomaly
250.18682°
Mean motion
3.28813 °/min
Orbital period
109.48 mins
BSTAR
-0.0012835
Loading maneuver chart data...
Computing Atmospheric mass density...
Loading historical data...
Loading historical data...
Loading historical data...
Loading historical data...
Loading historical data...
Loading historical data...
Loading historical data...

Documentation

Showing up to 5 results
|